DW1814 Weather Reports


Display with metric or nautical units.
time (UTC)temp
F
wind
direction
speed
MPH
gust
MPH
rain 1hr
in
rain 24hr
in
rain mn
in
humidity
%
barometer
mb
20260901190217 91 269 0.0 0.0 0.00 0.00 0.00 66 1013.5
20260901185716 91 196 0.0 2.0 0.00 0.00 0.00 64 1013.3
20260901185215 91 249 0.0 2.0 0.00 0.00 0.00 66 1013.5
20260901184711 91 205 0.0 1.0 0.00 0.00 0.00 67 1013.5
20260901184206 91 316 0.0 3.0 0.00 0.00 0.00 69 1013.4
20260901183701 91 217 0.0 2.0 0.00 0.00 0.00 67 1013.5
20260901183200 91 315 0.0 3.0 0.00 0.00 0.00 69 1013.6
20260901182657 90 315 0.0 1.0 0.00 0.00 0.00 67 1013.7
20260901182157 90 269 0.0 2.0 0.00 0.00 0.00 66 1013.5
20260901181652 90 333 0.0 2.0 0.00 0.00 0.00 70 1013.5
20260901181152 90 242 0.0 2.0 0.00 0.00 0.00 68 1013.7
20260901180652 90 297 0.0 0.0 0.00 0.00 0.00 72 1013.6
20260901180145 90 207 2.0 2.0 0.00 0.00 0.00 67 1013.7
20260901175644 90 205 0.0 2.0 0.00 0.00 0.00 73 1013.8
20260901175144 89 13 0.0 0.0 0.00 0.00 0.00 72 1014.1
20260901174640 89 322 2.0 2.0 0.00 0.00 0.00 72 1014.0
20260901174136 89 224 0.0 1.0 0.00 0.00 0.00 72 1013.9
20260901173631 89 269 0.0 2.0 0.00 0.00 0.00 74 1013.9
20260901173126 90 269 0.0 1.0 0.00 0.00 0.00 73 1013.9
20260901172622 89 202 0.0 0.0 0.00 0.00 0.00 74 1014.0
20260901172120 89 293 0.0 1.0 0.00 0.00 0.00 76 1014.1
20260901171619 89 262 0.0 2.0 0.00 0.00 0.00 77 1014.1
20260901171114 88 309 0.0 1.0 0.00 0.00 0.00 77 1014.0
20260901170613 87 224 0.0 1.0 0.00 0.00 0.00 77 1014.0
20260901170108 88 311 2.0 2.0 0.00 0.00 0.00 77 1014.3
20260901165607 88 94 2.0 3.0 0.00 0.00 0.00 75 1014.2
20260901165102 88 245 0.0 2.0 0.00 0.00 0.00 77 1014.4
20260901164558 87 347 2.0 2.0 0.00 0.00 0.00 80 1014.3
20260901164053 86 36 1.0 2.0 0.00 0.00 0.00 82 1014.4
20260901163548 85 14 0.0 1.0 0.00 0.00 0.00 82 1014.4
20260901163047 85 269 0.0 3.0 0.00 0.00 0.00 82 1014.6
20260901162542 85 302 2.0 3.0 0.00 0.00 0.00 79 1014.7
20260901162042 86 317 2.0 5.0 0.00 0.00 0.00 78 1014.4
20260901161541 86 269 0.0 1.0 0.00 0.00 0.00 78 1014.6
20260901161041 86 283 1.0 3.0 0.00 0.00 0.00 79 1014.5
20260901160538 85 332 0.0 1.0 0.00 0.00 0.00 80 1014.4
20260901160032 85 333 0.0 1.0 0.00 0.00 0.00 81 1014.5
20260901155531 84 326 0.0 2.0 0.00 0.00 0.00 84 1014.3
20260901155027 83 37 0.0 0.0 0.00 0.00 0.00 85 1014.3
20260901154526 83 324 1.0 2.0 0.00 0.00 0.00 83 1014.5
20260901154022 83 38 0.0 0.0 0.00 0.00 0.00 87 1014.3
20260901153516 82 359 0.0 1.0 0.00 0.00 0.00 86 1014.2
20260901153011 82 44 0.0 0.0 0.00 0.00 0.00 86 1014.2
20260901152510 83 28 0.0 0.0 0.00 0.00 0.00 84 1014.3
20260901152010 83 325 0.0 1.0 0.00 0.00 0.00 83 1014.3
20260901151506 83 333 0.0 0.0 0.00 0.00 0.00 84 1014.2
20260901151004 82 352 0.0 0.0 0.00 0.00 0.00 85 1014.2
20260901150503 82 75 0.0 1.0 0.00 0.00 0.00 84 1014.2
20260901150001 82 325 0.0 2.0 0.00 0.00 0.00 82 1014.4
20260901145455 82 50 0.0 0.0 0.00 0.00 0.00 83 1014.0
20260901144954 83 50 0.0 0.0 0.00 0.00 0.00 82 1014.2
20260901144449 83 50 0.0 0.0 0.00 0.00 0.00 85 1014.1
20260901143945 82 50 0.0 0.0 0.00 0.00 0.00 83 1014.0
20260901143441 82 29 0.0 0.0 0.00 0.00 0.00 84 1014.0
20260901142938 82 124 0.0 1.0 0.00 0.00 0.00 84 1013.9
20260901142437 81 299 0.0 2.0 0.00 0.00 0.00 85 1013.9
20260901141932 82 37 0.0 2.0 0.00 0.00 0.00 84 1014.2
20260901141427 82 315 0.0 2.0 0.00 0.00 0.00 83 1014.0
20260901140922 82 50 0.0 0.0 0.00 0.00 0.00 84 1014.1
20260901140420 81 309 0.0 1.0 0.00 0.00 0.00 84 1014.1
20260901135920 81 340 1.0 1.0 0.00 0.00 0.00 86 1014.1
20260901135415 80 104 0.0 1.0 0.00 0.00 0.00 88 1014.2
20260901134911 79 66 0.0 1.0 0.00 0.00 0.00 89 1014.3
20260901134407 80 42 0.0 0.0 0.00 0.00 0.00 88 1014.2
20260901133906 80 89 0.0 1.0 0.00 0.00 0.00 88 1014.1
20260901133406 79 63 0.0 1.0 0.00 0.00 0.00 88 1014.1
20260901132904 79 73 0.0 2.0 0.00 0.00 0.00 89 1014.1
20260901132359 79 52 0.0 1.0 0.00 0.00 0.00 91 1014.1
20260901131859 78 113 0.0 1.0 0.00 0.00 0.00 94 1014.3
20260901131358 77 47 0.0 1.0 0.00 0.00 0.00 96 1014.1
20260901130854 76 104 0.0 1.0 0.00 0.00 0.00 98 1014.2
20260901130354 76 49 0.0 1.0 0.00 0.00 0.00 99 1014.0
20260901125851 75 34 0.0 0.0 0.00 0.00 0.00 99 1014.4
20260901125351 75 130 0.0 1.0 0.00 0.00 0.00 99 1014.2
20260901124846 74 51 0.0 1.0 0.00 0.00 0.00 99 1014.2
20260901124341 74 55 1.0 1.0 0.00 0.00 0.00 99 1014.2
20260901123841 74 72 0.0 1.0 0.00 0.00 0.00 99 1014.0
20260901123336 74 110 0.0 1.0 0.00 0.00 0.00 99 1014.0
20260901122835 74 87 0.0 1.0 0.00 0.00 0.00 99 1014.0
20260901122335 74 62 0.0 1.0 0.00 0.00 0.00 99 1014.0
20260901121834 73 55 0.0 1.0 0.00 0.00 0.00 99 1014.1
20260901121329 73 55 0.0 1.0 0.00 0.00 0.00 99 1013.9
20260901120824 73 61 0.0 1.0 0.00 0.00 0.00 99 1013.8
20260901120319 73 75 1.0 1.0 0.00 0.00 0.00 99 1013.9
20260901115815 73 85 0.0 1.0 0.00 0.00 0.00 99 1013.8
20260901115310 72 81 1.0 2.0 0.00 0.00 0.00 99 1013.7
20260901114807 72 54 1.0 2.0 0.00 0.00 0.00 99 1013.8
20260901114302 72 87 0.0 1.0 0.00 0.00 0.00 99 1013.6
20260901113800 72 69 2.0 2.0 0.00 0.00 0.00 99 1013.6
20260901113255 72 32 2.0 2.0 0.00 0.00 0.00 99 1013.5
20260901112750 72 97 0.0 2.0 0.00 0.00 0.00 99 1013.5
20260901112249 72 86 1.0 2.0 0.00 0.00 0.00 99 1013.6
20260901111744 71 59 1.0 2.0 0.00 0.00 0.00 99 1013.5
20260901111243 71 86 1.0 1.0 0.00 0.00 0.00 99 1013.4
20260901110737 71 74 0.0 2.0 0.00 0.00 0.00 99 1013.5
20260901110232 71 75 0.0 1.0 0.00 0.00 0.00 99 1013.2
20260901105729 71 65 2.0 2.0 0.00 0.00 0.00 99 1013.3
20260901105229 71 71 1.0 2.0 0.00 0.00 0.00 99 1013.2
20260901104725 71 68 0.0 1.0 0.00 0.00 0.00 99 1013.0
20260901104226 71 62 0.0 1.0 0.00 0.00 0.00 99 1013.0
20260901103725 71 62 2.0 2.0 0.00 0.00 0.00 99 1013.1
20260901103220 72 83 1.0 2.0 0.00 0.00 0.00 99 1013.0
20260901102715 72 67 1.0 1.0 0.00 0.00 0.00 99 1013.4
20260901102214 72 89 0.0 1.0 0.00 0.00 0.00 99 1013.1
20260901101710 72 56 1.0 2.0 0.00 0.00 0.00 99 1012.9
20260901101205 72 86 1.0 2.0 0.00 0.00 0.00 99 1013.3
20260901100705 72 62 0.0 1.0 0.00 0.00 0.00 99 1013.2
20260901100159 72 57 1.0 2.0 0.00 0.00 0.00 99 1012.9
20260901095658 72 80 0.0 2.0 0.00 0.00 0.00 99 1013.0
20260901095155 71 71 0.0 2.0 0.00 0.00 0.00 99 1012.8
20260901094650 71 52 1.0 2.0 0.00 0.00 0.00 99 1013.1
20260901094145 71 63 1.0 2.0 0.00 0.00 0.00 98 1013.2
20260901093645 72 65 1.0 1.0 0.00 0.00 0.00 99 1013.0
20260901093144 72 59 0.0 2.0 0.00 0.00 0.00 98 1013.1
20260901092640 72 61 1.0 2.0 0.00 0.00 0.00 98 1013.1
20260901092136 72 50 1.0 2.0 0.00 0.00 0.00 98 1012.9
20260901091631 72 56 1.0 2.0 0.00 0.00 0.00 99 1013.0
20260901091126 72 65 1.0 2.0 0.00 0.00 0.00 98 1012.7
20260901090620 72 65 1.0 2.0 0.02 0.00 0.00 98 1013.1
20260901090117 72 53 0.0 2.0 0.02 0.00 0.00 98 1012.8
20260901085612 72 74 0.0 1.0 0.00 0.00 0.00 99 1013.0
20260901085107 72 72 0.0 1.0 0.00 0.00 0.00 98 1013.1
20260901084603 72 46 1.0 2.0 0.00 0.00 0.00 98 1013.1
20260901084100 72 70 1.0 2.0 0.00 0.00 0.00 98 1013.1
20260901083559 73 67 1.0 1.0 0.00 0.00 0.00 98 1013.0
20260901083057 73 56 1.0 2.0 0.00 0.00 0.00 98 1012.9
20260901082553 73 67 1.0 2.0 0.00 0.00 0.00 98 1012.9
20260901082048 73 67 1.0 2.0 0.00 0.00 0.00 98 1012.9
20260901081544 73 89 0.0 1.0 0.00 0.00 0.00 98 1012.9
20260901081043 73 66 1.0 1.0 0.00 0.00 0.00 98 1012.8
20260901080538 73 74 1.0 2.0 0.00 0.00 0.00 98 1012.7
20260901080037 73 74 0.0 1.0 0.00 0.00 0.00 98 1012.9
20260901075533 73 65 0.0 1.0 0.00 0.00 0.00 98 1012.6
20260901075032 73 53 0.0 2.0 0.00 0.00 0.00 98 1012.8
20260901074532 73 73 0.0 2.0 0.00 0.00 0.00 98 1012.8
20260901074027 73 87 0.0 1.0 0.00 0.00 0.00 98 1013.0
20260901073524 73 55 1.0 2.0 0.00 0.00 0.00 98 1012.8
20260901073019 73 55 1.0 1.0 0.00 0.00 0.00 98 1012.8
20260901072514 73 74 0.0 1.0 0.00 0.00 0.00 98 1012.7
20260901072009 73 45 1.0 1.0 0.00 0.00 0.00 98 1012.9
20260901071508 73 73 0.0 1.0 0.00 0.00 0.00 98 1012.7
20260901071007 73 75 1.0 2.0 0.00 0.00 0.00 98 1012.6
20260901070502 73 66 0.0 2.0 0.00 0.00 0.00 97 1012.8
20260901070001 73 66 0.0 1.0 0.00 0.00 0.00 97 1012.6
20260901065457 73 60 1.0 1.0 0.00 0.00 0.00 97 1012.7
20260901064951 73 79 1.0 1.0 0.00 0.00 0.00 98 1012.6
20260901064448 73 66 1.0 1.0 0.00 0.00 0.00 97 1012.7
20260901063945 73 62 0.0 1.0 0.00 0.00 0.00 97 1012.8
20260901063441 73 58 0.0 1.0 0.00 0.00 0.00 97 1012.7
20260901062937 73 76 1.0 1.0 0.00 0.00 0.00 97 1012.7
20260901062433 73 73 0.0 1.0 0.00 0.00 0.00 97 1012.6
20260901061928 73 89 1.0 1.0 0.00 0.00 0.00 97 1012.7
20260901061424 73 87 0.0 2.0 0.00 0.00 0.00 96 1012.6
20260901060919 73 89 0.0 1.0 0.00 0.00 0.00 96 1012.6
20260901060415 73 67 1.0 2.0 0.00 0.00 0.00 96 1012.8
20260901055913 73 49 0.0 2.0 0.00 0.00 0.00 96 1012.5
20260901055410 74 64 0.0 2.0 0.00 0.00 0.00 96 1012.7
20260901054906 74 65 0.0 1.0 0.00 0.00 0.00 96 1012.8
20260901054404 74 62 0.0 1.0 0.00 0.00 0.00 96 1012.6
20260901053859 74 57 0.0 1.0 0.00 0.00 0.00 96 1012.8
20260901053354 74 84 0.0 1.0 0.00 0.00 0.00 96 1012.7
20260901052850 74 76 0.0 1.0 0.00 0.00 0.00 96 1012.9
20260901052345 74 102 0.0 1.0 0.00 0.00 0.00 95 1012.8
20260901051844 74 89 0.0 1.0 0.00 0.00 0.00 95 1012.7
20260901051339 74 89 0.0 1.0 0.00 0.00 0.00 95 1012.8
20260901050834 74 72 0.0 1.0 0.00 0.00 0.00 95 1012.8
20260901050330 75 79 0.0 1.0 0.00 0.00 0.00 95 1012.8
20260901045830 75 86 0.0 1.0 0.00 0.35 0.35 95 1012.6
20260901045330 75 73 0.0 1.0 0.00 0.35 0.35 95 1012.9
20260901044826 75 107 0.0 1.0 0.00 0.35 0.35 95 1013.1
20260901044322 75 129 0.0 1.0 0.00 0.35 0.35 95 1012.7
20260901043818 75 122 0.0 1.0 0.00 0.35 0.35 95 1012.7
20260901043314 75 99 0.0 1.0 0.00 0.35 0.35 95 1013.0
20260901042813 75 120 0.0 1.0 0.00 0.35 0.35 95 1012.9
20260901042308 75 86 1.0 1.0 0.00 0.35 0.35 95 1012.8
20260901041803 75 131 0.0 1.0 0.00 0.35 0.35 95 1012.8
20260901041258 75 89 0.0 1.0 0.00 0.35 0.35 95 1012.8
20260901040755 75 85 0.0 1.0 0.00 0.35 0.35 94 1012.9
20260901040252 75 67 1.0 1.0 0.00 0.35 0.35 94 1013.0
20260901035750 75 83 0.0 1.0 0.00 0.35 0.35 94 1012.7
20260901035250 75 73 1.0 1.0 0.00 0.35 0.35 93 1013.1
20260901034748 75 41 0.0 2.0 0.00 0.35 0.35 93 1013.0
20260901034244 76 68 0.0 1.0 0.00 0.35 0.35 92 1013.0
20260901033743 76 69 0.0 1.0 0.00 0.35 0.35 92 1013.0
20260901033243 76 132 0.0 1.0 0.00 0.35 0.35 93 1013.1
20260901032741 76 112 2.0 2.0 0.00 0.35 0.35 93 1013.1
20260901032236 75 101 1.0 2.0 0.00 0.35 0.35 93 1013.2
20260901031732 76 64 0.0 1.0 0.00 0.35 0.35 93 1012.9
20260901031227 76 85 0.0 1.0 0.00 0.35 0.35 93 1013.1
20260901030721 76 69 0.0 1.0 0.00 0.35 0.35 92 1013.3
20260901030216 76 75 0.0 1.0 0.00 0.35 0.35 92 1013.2
20260901025711 76 42 0.0 1.0 0.00 0.35 0.35 91 1013.3
20260901025211 77 44 0.0 1.0 0.00 0.35 0.35 91 1013.1
20260901024711 77 116 0.0 1.0 0.00 0.35 0.35 91 1013.3
20260901024210 77 116 0.0 1.0 0.00 0.35 0.35 91 1013.0
20260901023709 77 96 0.0 1.0 0.00 0.35 0.35 91 1013.0
20260901023204 77 89 0.0 1.0 0.00 0.35 0.35 91 1012.9
20260901022659 77 110 0.0 1.0 0.00 0.35 0.35 92 1012.9
20260901022154 77 104 0.0 1.0 0.00 0.35 0.35 92 1013.0
20260901021650 77 147 0.0 1.0 0.00 0.35 0.35 92 1013.3
20260901021145 77 77 0.0 1.0 0.00 0.35 0.35 93 1013.1
20260901020641 77 117 0.0 1.0 0.00 0.35 0.35 93 1013.1
20260901020136 77 75 1.0 2.0 0.00 0.35 0.35 93 1013.1
20260901015631 77 147 0.0 1.0 0.00 0.35 0.35 93 1012.8
20260901015131 76 141 1.0 2.0 0.00 0.35 0.35 94 1012.9
20260901014631 76 131 1.0 2.0 0.00 0.35 0.35 94 1013.1
20260901014127 76 89 0.0 1.0 0.00 0.35 0.35 94 1013.1
20260901013623 77 61 1.0 1.0 0.00 0.35 0.35 93 1013.2
20260901013119 77 45 2.0 2.0 0.00 0.35 0.35 93 1013.1
20260901012618 77 89 1.0 1.0 0.00 0.35 0.35 93 1013.0
20260901012114 77 75 0.0 1.0 0.00 0.35 0.35 93 1012.9
20260901011610 77 102 0.0 1.0 0.00 0.35 0.35 93 1012.9
20260901011108 77 73 0.0 1.0 0.00 0.35 0.35 93 1012.7
20260901010603 77 65 1.0 1.0 0.00 0.35 0.35 92 1012.7
20260901005557 77 54 0.0 2.0 0.00 0.35 0.35 92 1012.9
20260901005052 77 29 0.0 1.0 0.00 0.35 0.35 92 1012.7
20260901004552 78 73 0.0 2.0 0.00 0.35 0.35 92 1012.6
20260901004047 78 129 0.0 1.0 0.00 0.35 0.35 91 1012.6
20260901003542 78 89 0.0 1.0 0.00 0.35 0.35 91 1012.5
20260901003040 78 116 1.0 1.0 0.00 0.35 0.35 91 1012.4
20260901002540 78 89 0.0 0.0 0.00 0.35 0.35 91 1012.6
20260901002035 78 89 0.0 1.0 0.00 0.35 0.35 91 1012.5
20260901001530 78 128 0.0 1.0 0.00 0.35 0.35 91 1012.4
20260901001025 78 124 0.0 1.0 0.00 0.35 0.35 91 1012.5
20260901000525 79 102 0.0 0.0 0.00 0.35 0.35 91 1012.5
20260901000022 79 129 0.0 0.0 0.00 0.35 0.35 91 1012.5
20260831235515 79 55 0.0 0.0 0.00 0.35 0.35 91 1012.6
20260831235010 79 55 0.0 1.0 0.00 0.35 0.35 91 1012.2
20260831234504 79 24 0.0 2.0 0.00 0.35 0.35 90 1012.2
20260831234000 79 66 0.0 0.0 0.02 0.35 0.35 89 1011.9
20260831233455 79 60 0.0 1.0 0.00 0.35 0.35 91 1011.9
20260831232951 79 142 0.0 1.0 0.00 0.35 0.35 91 1012.0
20260831232446 79 113 0.0 1.0 0.00 0.35 0.35 92 1012.5
20260831231942 79 112 0.0 0.0 0.00 0.35 0.35 91 1012.6
20260831231438 79 180 0.0 1.0 0.00 0.35 0.35 91 1012.5
20260831230934 79 168 1.0 1.0 0.00 0.35 0.35 91 1012.7
20260831230429 80 32 0.0 0.0 0.02 0.35 0.35 91 1012.5
20260831225928 80 62 0.0 0.0 0.00 0.34 0.34 91 1012.4
20260831225425 80 142 0.0 0.0 0.00 0.34 0.34 91 1012.3
20260831224919 80 117 0.0 1.0 0.00 0.34 0.34 91 1012.3
20260831224413 80 75 0.0 1.0 0.02 0.34 0.34 91 1012.4
20260831223908 80 144 0.0 1.0 0.02 0.34 0.34 92 1011.9
20260831223404 80 73 0.0 0.0 0.00 0.34 0.34 92 1012.0
20260831222900 80 140 0.0 2.0 0.02 0.34 0.34 92 1012.2
20260831222355 80 205 0.0 0.0 0.02 0.34 0.34 92 1012.2
20260831221850 80 123 0.0 0.0 0.00 0.34 0.34 93 1012.0
20260831221346 80 182 0.0 0.0 0.02 0.34 0.34 93 1012.2
20260831220841 80 195 0.0 1.0 0.02 0.34 0.34 95 1012.2
20260831220337 79 195 0.0 0.0 0.02 0.33 0.33 95 1011.9
20260831215832 79 25 0.0 0.0 0.02 0.33 0.33 96 1012.0
20260831215327 78 104 0.0 0.0 0.02 0.33 0.33 96 1011.8
20260831214824 78 147 0.0 1.0 0.05 0.33 0.33 95 1012.0
20260831214321 78 166 1.0 2.0 0.05 0.32 0.32 95 1012.0
20260831213816 78 166 2.0 2.0 0.05 0.32 0.32 94 1011.9
20260831213313 78 122 0.0 1.0 0.05 0.32 0.32 94 1011.9
20260831212808 78 131 0.0 1.0 0.05 0.31 0.31 93 1012.0
20260831212306 78 60 1.0 1.0 0.05 0.31 0.31 92 1012.0
20260831211803 79 133 0.0 2.0 0.02 0.30 0.30 90 1011.9
20260831211258 80 186 0.0 1.0 0.00 0.30 0.30 87 1012.0
20260831210758 80 108 0.0 1.0 0.00 0.30 0.30 87 1012.0
20260831210254 80 37 0.0 0.0 0.00 0.30 0.30 85 1012.3
20260831205753 81 133 0.0 2.0 0.02 0.30 0.30 85 1011.8
20260831205250 81 220 0.0 2.0 0.02 0.30 0.30 84 1011.3
20260831204749 81 89 0.0 1.0 0.00 0.29 0.29 86 1011.4
20260831204249 80 281 0.0 1.0 0.00 0.29 0.29 89 1011.4
20260831203748 79 79 0.0 2.0 0.02 0.29 0.29 90 1011.4
20260831203243 78 119 0.0 1.0 0.02 0.29 0.29 92 1011.7
20260831202741 78 69 1.0 2.0 0.00 0.29 0.29 92 1011.9
20260831202237 77 87 1.0 1.0 0.00 0.29 0.29 90 1012.8
20260831201736 77 108 1.0 2.0 0.00 0.29 0.29 89 1013.1
20260831201236 77 55 0.0 0.0 0.02 0.29 0.29 89 1013.3
20260831200731 77 58 0.0 1.0 0.02 0.29 0.29 89 1012.8
20260831200226 77 89 0.0 1.0 0.00 0.29 0.29 88 1013.3
20260831195721 77 33 0.0 1.0 0.00 0.29 0.29 88 1013.2
20260831195217 77 34 0.0 0.0 0.00 0.29 0.29 87 1012.8
20260831194711 77 44 0.0 0.0 0.02 0.29 0.29 87 1012.7
20260831194207 77 142 0.0 1.0 0.02 0.29 0.29 88 1012.0
20260831193701 77 50 0.0 0.0 0.00 0.28 0.28 87 1012.4
20260831193157 78 28 0.0 1.0 0.02 0.28 0.28 87 1012.5
20260831192652 78 117 1.0 2.0 0.02 0.28 0.28 82 1012.4
20260831192147 79 346 2.0 2.0 0.00 0.28 0.28 78 1012.4
20260831191643 80 315 0.0 1.0 0.00 0.28 0.28 78 1012.5
20260831191138 80 149 0.0 2.0 0.00 0.28 0.28 76 1012.6
20260831190633 80 165 1.0 1.0 0.00 0.28 0.28 77 1012.7